Theta_e
326 326 326 325 324 324 323 323 323 323 323 323 323 324 325 326 325 323 318 328 339 358 358 356 353 351 349 342 341 339 328 318 318 318 319 324 322 328 330 327 329 332 331 334 338
326 326 325 325 324 324 323 323 323 322 323 322 323 324 325 326 323 320 330 353 355 357 351 349 344 345 341 338 329 326 327 321 326 325 325 326 325 325 325 325 326 329 332 335 336
325 324 324 325 324 324 323 323 323 322 322 322 323 324 325 325 322 318 341 354 355 354 350 351 347 343 338 337 329 333 325 326 326 328 329 327 327 326 324 322 326 325 328 332 334
324 324 323 323 323 323 323 323 323 323 322 322 322 324 326 323 315 324 347 353 355 343 348 346 341 335 335 332 334 327 329 327 327 327 328 327 328 323 325 326 329 330 332 333 334
324 323 323 323 322 322 322 322 322 322 322 322 322 324 323 317 322 329 349 349 342 344 337 341 336 334 326 330 332 327 330 329 330 331 328 332 328 326 326 330 331 333 336 335 335
323 323 323 323 321 321 321 322 322 321 322 322 323 323 319 316 328 329 332 333 335 335 340 340 335 334 333 333 331 332 330 329 328 329 330 329 329 328 328 332 331 333 335 336 336
322 322 322 322 321 321 320 320 320 321 322 323 324 324 321 320 329 327 332 330 338 342 330 337 338 329 329 332 333 332 326 327 327 329 328 331 324 325 331 332 330 331 334 336 337
322 321 321 321 321 320 320 319 320 321 323 324 325 322 320 329 330 327 330 328 329 332 327 331 337 329 328 338 333 326 325 318 327 328 331 330 318 329 332 331 329 331 332 334 337
320 320 319 320 320 319 319 319 321 324 325 325 323 323 318 329 323 325 326 321 322 326 329 333 329 324 328 327 325 324 314 317 316 327 330 327 321 330 333 331 329 329 331 332 336
319 319 318 319 318 318 318 319 325 319 322 327 327 319 321 316 322 323 324 321 318 320 323 327 325 319 321 323 313 316 316 318 316 326 328 325 326 332 333 332 329 329 329 331 333
318 318 318 318 317 317 319 325 320 318 320 317 317 319 319 322 325 321 321 318 317 316 315 321 316 313 317 326 326 323 321 319 320 325 323 321 325 329 332 332 330 329 329 330 332
318 317 318 317 316 316 319 323 320 322 314 318 318 318 321 321 315 318 322 313 313 309 316 317 310 317 320 323 323 322 320 319 324 325 324 319 320 329 331 332 332 331 330 331 332
317 317 317 316 315 317 322 323 325 324 314 317 316 316 318 318 314 316 318 314 312 310 312 313 315 317 317 317 315 317 315 318 317 323 323 323 320 326 330 333 335 334 333 333 332
316 316 316 314 317 326 322 326 326 324 310 313 312 315 318 318 312 321 320 316 314 310 313 314 318 314 313 312 316 312 319 317 316 313 311 321 309 324 326 328 331 333 333 333 333
315 315 314 314 322 324 326 327 326 322 302 312 313 322 319 314 316 315 323 318 312 312 313 312 312 312 311 312 315 314 319 317 317 314 314 315 311 319 327 325 328 331 334 335 335
314 314 314 323 327 325 329 327 321 307 301 310 313 312 312 314 315 317 317 319 319 313 313 312 319 314 313 314 313 315 313 313 314 313 306 312 311 315 321 324 328 332 333 335 336
313 312 313 326 327 332 328 322 307 302 315 310 310 312 311 310 312 313 312 310 308 304 305 310 310 314 314 309 312 311 307 301 302 304 304 313 311 317 325 327 328 332 334 337 338
310 311 320 328 331 331 324 314 303 312 312 315 313 312 308 312 311 311 311 308 312 311 307 304 303 310 313 309 307 308 307 301 298 302 306 315 309 316 328 331 334 334 338 340 339
309 325 330 333 332 328 318 306 309 313 316 313 312 308 308 311 311 310 309 310 312 312 306 306 306 315 313 313 311 308 305 309 304 306 303 308 316 323 326 327 330 330 334 334 338
315 323 328 333 329 322 313 306 313 318 316 314 308 310 307 309 309 309 309 312 312 315 316 310 305 312 313 314 312 309 312 304 304 298 298 303 309 312 319 323 326 331 331 334 335
318 319 328 331 326 317 308 311 314 319 318 312 310 310 311 310 311 309 309 313 314 314 316 313 309 308 312 308 307 307 305 307 307 306 300 299 304 323 326 327 326 327 330 331 334
318 312 329 330 314 314 310 313 310 316 319 314 313 312 311 312 312 311 309 312 316 315 310 314 309 304 307 313 313 310 308 308 303 303 306 305 306 323 327 329 328 331 334 335 335
312 312 320 324 308 308 313 313 316 315 314 313 311 313 314 312 309 312 313 317 316 314 311 313 307 302 304 309 312 308 309 310 309 308 306 303 305 325 329 329 334 334 336 339 339
312 307 316 319 319 313 310 310 311 318 315 315 313 314 312 311 313 311 312 316 316 315 322 315 309 306 301 306 310 306 307 309 308 305 304 305 311 321 324 324 331 335 338 340 344
314 309 313 308 312 312 312 314 311 310 315 317 313 312 312 310 311 310 313 314 316 319 314 311 305 307 308 309 309 309 308 308 306 307 304 308 309 324 328 327 327 334 337 340 342
308 308 312 309 312 310 307 308 308 309 310 311 311 314 313 311 312 310 313 313 312 315 311 311 306 307 304 308 308 306 308 309 309 308 308 309 308 316 325 330 330 334 337 338 341
316 318 313 307 307 305 304 306 308 311 312 314 313 313 311 314 318 318 319 318 317 314 313 310 308 306 301 306 306 302 307 308 309 311 310 306 312 317 316 328 333 335 336 337 340
Wind_Speed
13 12 12 13 13 13 12 12 12 13 13 13 12 13 13 14 18 7 8 1 0 13 6 14 15 13 13 12 14 17 6 9 8 16 19 18 16 13 13 8 7 16 18 21 18
13 13 13 13 14 14 13 12 12 13 13 13 13 13 12 12 9 14 5 8 9 9 10 14 10 7 7 8 11 9 5 13 17 1 18 17 17 17 14 14 19 20 20 18 17
14 15 14 14 15 14 14 13 12 13 12 13 13 12 11 12 9 5 5 8 10 9 16 21 9 18 15 9 12 9 9 18 13 12 15 14 13 18 19 16 15 17 16 17 16
14 14 15 16 16 15 15 14 12 12 13 12 12 12 11 8 2 5 5 5 6 10 16 14 7 12 7 13 14 7 19 6 14 10 17 16 19 14 17 17 18 16 16 14 14
14 15 16 17 17 16 15 15 14 13 12 11 10 10 8 9 2 9 6 6 10 11 14 13 13 6 6 13 6 10 9 11 10 16 10 19 16 16 17 18 18 17 16 16 14
15 14 15 15 18 17 15 14 13 13 12 10 10 9 7 10 12 12 11 12 13 15 14 9 12 12 7 9 6 8 3 15 5 13 8 18 15 16 16 18 18 16 14 15 14
16 16 16 16 18 17 16 15 15 13 12 10 8 7 10 4 9 11 13 12 14 11 10 7 9 14 17 13 3 14 10 9 5 11 10 14 12 12 17 18 17 16 12 14 12
16 18 17 17 17 18 15 14 14 13 12 9 6 8 6 3 4 11 13 13 9 8 11 13 8 14 16 7 14 7 8 8 17 20 11 18 12 15 15 16 15 15 13 12 13
20 19 20 20 19 17 15 15 12 11 9 4 7 9 6 4 10 12 12 11 9 11 11 11 9 15 16 6 7 7 3 7 18 15 22 13 10 15 16 15 14 13 13 12 12
22 22 22 19 20 18 17 10 8 4 6 9 12 10 9 10 13 13 12 12 9 10 11 12 11 14 12 10 10 3 1 12 13 15 17 7 15 15 18 17 15 14 12 12 14
19 20 21 21 20 16 14 5 7 7 14 9 6 12 7 9 8 10 12 11 11 11 12 12 11 12 12 15 14 15 17 18 9 19 6 15 8 16 14 16 16 16 14 12 14
21 21 22 23 20 14 7 8 9 8 7 20 9 7 5 8 10 12 13 12 14 14 15 14 11 16 10 6 14 15 20 3 15 15 17 17 22 23 15 16 15 19 17 16 15
22 23 23 23 22 6 11 11 7 9 8 14 14 12 10 12 11 14 15 17 14 15 16 17 13 13 2 5 9 9 13 14 1 5 8 20 21 15 15 13 16 15 17 17 16
24 22 23 27 4 7 10 3 7 4 7 14 13 13 15 11 14 14 17 15 8 15 17 16 17 3 4 10 10 14 11 7 5 9 5 5 5 17 12 24 17 16 18 15 17
24 23 23 10 12 9 7 5 9 5 7 13 15 10 12 13 6 11 17 18 16 14 14 15 12 14 10 12 12 14 13 9 9 11 15 12 10 18 24 23 21 17 22 18 16
25 22 22 5 7 13 8 7 7 7 6 11 12 11 15 17 8 12 14 18 11 16 14 18 12 13 15 10 13 12 11 10 12 12 11 14 7 4 7 4 9 11 8 20 18
28 26 12 9 4 9 8 7 7 9 8 12 15 13 17 16 15 12 15 17 14 13 16 17 19 10 9 12 14 14 11 9 9 10 11 16 12 8 16 19 23 18 13 12 20
33 30 8 9 9 8 6 7 10 13 15 9 11 13 17 17 17 14 13 16 19 19 13 12 14 20 17 18 14 14 16 12 11 12 10 12 3 7 16 13 14 11 9 2 7
32 9 6 9 10 6 7 11 8 13 9 2 10 12 17 18 14 17 18 17 18 19 18 13 17 10 20 15 16 16 14 18 19 20 13 7 11 6 14 11 16 13 14 7 8
11 10 13 10 5 6 9 17 18 18 13 12 12 9 15 17 18 16 17 14 20 19 19 19 14 17 14 15 17 18 13 12 10 15 16 15 13 14 17 19 13 16 13 8 3
6 7 7 7 5 7 11 15 18 17 14 8 15 19 17 16 16 18 18 17 12 17 17 17 16 13 12 12 16 12 16 17 15 12 12 12 10 10 19 17 15 13 12 10 8
7 8 9 3 7 8 13 20 20 22 16 8 13 18 20 20 17 20 20 19 8 13 17 17 10 16 16 11 13 17 17 18 12 14 14 12 3 11 16 20 15 16 9 8 8
8 11 12 5 9 12 17 22 22 18 12 14 18 15 18 18 21 19 20 16 18 15 12 13 10 15 17 15 17 16 19 18 18 16 17 12 10 12 12 13 15 16 13 8 7
7 6 6 9 9 14 17 17 20 17 15 12 20 17 17 17 17 20 21 19 16 16 9 6 16 14 15 17 15 20 16 17 17 13 15 16 9 12 12 13 15 15 12 10 9
6 7 12 9 13 17 18 15 15 17 17 13 14 15 18 17 17 18 18 20 18 9 10 12 18 19 20 23 22 17 18 22 20 20 20 15 18 18 16 16 14 14 10 10 10
6 10 10 14 18 18 15 16 18 20 20 17 20 15 16 18 17 18 20 18 17 14 15 15 17 18 23 22 22 22 20 16 18 19 21 20 20 13 13 16 15 14 12 11 11
10 13 10 9 15 14 13 18 18 17 17 17 18 17 16 18 13 13 17 19 15 16 18 18 14 16 20 21 21 25 22 20 20 15 17 17 16 14 9 16 18 16 14 13 12
Wind_Direction
354 353 352 349 345 344 339 334 333 329 324 320 320 317 323 318 302 227 253 100 44 170 231 249 230 253 246 273 350 333 196 87 90 103 95 97 93 116 130 134 89 93 140 125 135
353 352 350 348 340 338 335 333 329 321 318 316 317 317 323 324 276 257 127 165 172 174 222 227 221 218 245 58 18 11 290 104 100 276 104 122 137 137 112 110 104 98 109 134 144
352 351 344 342 338 334 330 327 321 316 312 311 310 313 317 307 264 178 167 177 184 215 257 292 313 29 329 164 196 203 253 107 128 158 112 116 103 133 121 120 123 128 136 145 152
348 345 343 341 336 330 325 320 316 309 306 304 306 313 318 259 320 93 167 179 196 232 259 275 239 161 236 266 205 279 98 268 120 103 108 97 83 65 90 114 125 135 141 148 162
350 345 338 336 333 329 319 313 310 302 297 298 301 312 282 224 241 131 156 177 199 217 253 258 281 117 275 287 233 34 319 7 111 107 101 86 93 107 111 119 129 141 148 161 158
349 342 334 329 333 327 319 310 302 295 291 289 295 308 246 258 95 146 172 175 231 220 242 272 312 322 349 6 332 221 278 232 166 89 160 112 123 115 118 130 135 150 169 166 146
345 342 339 332 332 328 320 310 300 291 286 284 286 276 260 293 144 166 186 204 223 237 270 255 301 307 300 171 157 314 345 314 169 152 98 53 24 111 135 136 146 161 174 131 158
341 339 336 331 329 329 320 307 292 280 275 267 272 258 275 129 270 184 189 214 229 246 279 300 303 291 281 272 175 29 41 357 302 329 97 93 274 146 150 144 158 159 163 148 141
343 344 342 337 333 328 318 311 290 278 249 226 233 228 240 131 209 194 207 219 222 240 254 278 275 276 277 230 52 58 113 111 328 310 252 120 226 258 170 156 160 161 158 164 158
337 335 339 335 332 327 317 292 317 282 219 218 261 245 186 212 186 194 204 230 221 237 246 249 262 252 230 201 154 199 212 163 190 295 337 137 174 201 181 160 158 162 163 173 166
332 329 328 331 329 326 318 207 204 195 224 242 215 250 144 167 145 196 197 209 225 226 231 219 240 243 252 112 155 162 203 195 111 296 349 349 228 174 186 160 162 161 167 178 172
330 326 326 329 323 315 272 257 39 330 270 226 257 240 154 153 184 198 184 204 205 220 222 240 232 264 279 103 166 196 220 271 183 203 133 80 287 262 173 180 179 167 169 176 177
332 329 328 327 319 266 243 292 332 314 265 195 206 218 201 187 213 188 193 209 201 224 224 242 239 229 355 212 272 269 295 172 236 228 214 168 217 203 171 190 186 174 164 179 179
331 329 329 325 293 249 241 29 290 317 274 174 196 218 179 213 232 186 198 206 219 230 233 232 260 214 217 260 241 270 209 281 296 271 302 282 184 209 146 227 185 177 170 183 173
328 329 325 327 314 272 25 299 324 246 275 135 166 159 172 201 172 184 181 225 241 216 234 240 228 257 229 251 249 276 310 342 297 270 280 218 256 172 175 207 175 185 173 176 167
325 326 330 150 224 261 314 298 247 234 247 166 144 192 191 216 181 161 186 231 243 261 238 259 260 235 259 222 254 272 287 267 268 268 269 265 249 107 132 80 50 79 158 172 177
325 316 306 307 296 354 301 266 231 248 131 158 174 195 210 198 223 189 197 206 224 220 246 233 246 235 260 267 238 233 245 248 239 230 242 238 223 139 145 134 117 226 173 184 187
321 311 226 235 292 293 263 235 250 267 195 101 194 192 210 209 210 197 211 219 219 240 259 214 230 218 205 227 244 219 227 244 240 244 245 355 338 108 142 113 107 119 107 123 221
313 295 230 220 221 267 242 225 242 226 320 181 201 214 205 219 225 201 211 227 228 217 249 264 245 234 203 202 234 241 216 251 268 284 285 238 107 55 119 153 146 130 131 121 95
316 291 257 134 190 223 238 242 272 302 324 306 273 219 243 215 220 229 209 222 238 227 211 256 278 282 174 196 213 246 247 223 231 260 276 283 218 221 182 173 165 147 149 151 149
264 266 108 135 186 230 242 251 257 258 265 269 272 277 267 257 226 226 233 239 221 237 226 223 252 270 170 195 229 208 239 257 272 232 240 255 270 130 163 159 156 151 137 153 162
298 276 122 237 237 236 247 252 263 280 294 264 268 284 288 290 271 263 229 240 269 200 238 215 237 239 256 212 205 257 233 230 242 240 275 275 273 58 160 136 158 130 136 154 158
296 293 285 166 261 255 253 256 255 268 285 279 271 253 275 274 283 283 276 264 244 202 230 232 218 249 247 231 204 217 239 245 228 242 261 256 252 124 111 128 118 133 143 140 136
285 297 206 193 241 269 283 290 295 293 240 266 282 288 275 268 269 271 274 276 278 252 104 286 245 230 242 234 237 198 221 246 253 246 227 242 193 139 150 159 141 148 151 154 154
249 300 347 304 309 329 317 310 298 291 290 279 249 266 279 277 273 272 266 268 269 236 177 227 254 255 257 265 272 274 218 208 226 250 258 251 240 164 181 177 159 135 152 150 145
297 337 333 303 303 298 285 275 276 282 288 280 281 275 250 276 266 292 282 269 261 250 208 212 245 253 259 262 258 265 263 260 224 218 243 251 265 280 171 149 149 147 153 166 155
349 332 301 279 287 286 278 283 283 284 279 275 280 291 308 337 335 318 310 307 298 294 299 216 228 239 249 250 263 257 253 256 254 238 225 234 239 260 250 156 151 150 166 172 161